TimeCST,TemperatureF,Dew PointF,Humidity,Sea Level PressureIn,VisibilityMPH,Wind Direction,Wind SpeedMPH,Gust SpeedMPH,PrecipitationIn,Events,Conditions,WindDirDegrees,DateUTC
12:53 AM,61.0,57.9,90,29.86,6.0,Calm,Calm,-,N/A,,Clear,0,2012-12-08 06:53:00
1:53 AM,62.1,59.0,90,29.85,7.0,SSW,3.5,-,N/A,,Mostly Cloudy,210,2012-12-08 07:53:00
2:12 AM,62.6,60.8,94,29.88,7.0,NW,8.1,-,N/A,,Overcast,320,2012-12-08 08:12:00
2:53 AM,61.0,59.0,93,29.86,6.0,Calm,Calm,-,0.00,Rain,Light Rain,0,2012-12-08 08:53:00
3:53 AM,62.1,60.1,93,29.86,6.0,SSE,4.6,-,0.00,,Overcast,160,2012-12-08 09:53:00
4:06 AM,62.6,60.8,94,29.87,6.0,Calm,Calm,-,N/A,,Overcast,0,2012-12-08 10:06:00
4:28 AM,62.6,60.8,94,29.87,5.0,Calm,Calm,-,N/A,,Overcast,0,2012-12-08 10:28:00
4:35 AM,62.6,60.8,94,29.88,5.0,Calm,Calm,-,N/A,,Overcast,0,2012-12-08 10:35:00
4:53 AM,63.0,61.0,93,29.86,5.0,Calm,Calm,-,N/A,,Overcast,0,2012-12-08 10:53:00
5:53 AM,62.1,60.1,93,29.87,5.0,Calm,Calm,-,N/A,,Overcast,0,2012-12-08 11:53:00
6:53 AM,62.1,60.1,93,29.88,5.0,Calm,Calm,-,N/A,,Overcast,0,2012-12-08 12:53:00
7:34 AM,62.6,60.8,94,29.91,5.0,Calm,Calm,-,N/A,,Overcast,0,2012-12-08 13:34:00
7:53 AM,62.1,60.1,93,29.90,2.5,Calm,Calm,-,N/A,,Overcast,0,2012-12-08 13:53:00
8:12 AM,62.6,60.8,94,29.91,1.2,Calm,Calm,-,N/A,,Overcast,0,2012-12-08 14:12:00
8:22 AM,62.6,60.8,94,29.91,0.8,Calm,Calm,-,N/A,,Overcast,0,2012-12-08 14:22:00
8:53 AM,61.0,59.0,93,29.91,0.8,North,4.6,-,N/A,,Overcast,350,2012-12-08 14:53:00
9:04 AM,60.8,59.0,94,29.92,1.2,North,4.6,-,N/A,,Overcast,350,2012-12-08 15:04:00
9:21 AM,60.8,59.0,94,29.92,2.0,North,3.5,-,N/A,,Overcast,350,2012-12-08 15:21:00
9:28 AM,60.8,59.0,94,29.92,1.8,NNW,4.6,-,N/A,,Overcast,340,2012-12-08 15:28:00
9:53 AM,60.1,57.9,93,29.91,1.8,North,4.6,-,N/A,,Overcast,360,2012-12-08 15:53:00
10:04 AM,60.8,59.0,94,29.93,2.0,Calm,Calm,-,N/A,,Overcast,0,2012-12-08 16:04:00
10:48 AM,62.6,60.8,94,29.92,3.0,Calm,Calm,-,N/A,,Overcast,0,2012-12-08 16:48:00
10:53 AM,63.0,60.1,90,29.91,3.0,Calm,Calm,-,N/A,,Overcast,0,2012-12-08 16:53:00
11:31 AM,66.2,60.8,83,29.90,5.0,Calm,Calm,-,N/A,,Haze,0,2012-12-08 17:31:00
11:53 AM,64.9,61.0,87,29.88,5.0,NNW,3.5,-,N/A,,Overcast,330,2012-12-08 17:53:00
12:36 PM,68.0,62.6,83,29.87,6.0,NW,3.5,-,N/A,,Haze,310,2012-12-08 18:36:00
12:53 PM,68.0,62.1,81,29.86,6.0,West,3.5,-,N/A,,Haze,280,2012-12-08 18:53:00
1:01 PM,68.0,62.6,83,29.87,6.0,WNW,3.5,-,N/A,,Haze,300,2012-12-08 19:01:00
1:39 PM,71.6,62.6,73,29.86,7.0,Calm,Calm,-,N/A,,Mostly Cloudy,0,2012-12-08 19:39:00
1:53 PM,71.1,62.1,73,29.84,8.0,Variable,3.5,-,N/A,,Mostly Cloudy,0,2012-12-08 19:53:00
2:53 PM,71.1,63.0,75,29.82,9.0,West,5.8,-,N/A,,Mostly Cloudy,270,2012-12-08 20:53:00
3:00 PM,71.6,62.6,73,29.83,9.0,Variable,3.5,-,N/A,,Scattered Clouds,0,2012-12-08 21:00:00
3:53 PM,72.0,63.0,73,29.82,9.0,SW,4.6,-,N/A,,Clear,230,2012-12-08 21:53:00
4:53 PM,71.1,63.0,75,29.81,10.0,Calm,Calm,-,N/A,,Clear,0,2012-12-08 22:53:00
5:53 PM,66.9,62.1,84,29.81,9.0,SE,3.5,-,N/A,,Clear,130,2012-12-08 23:53:00
6:53 PM,66.0,63.0,90,29.83,6.0,Calm,Calm,-,N/A,,Clear,0,2012-12-09 00:53:00
7:53 PM,63.0,60.1,90,29.83,4.0,Calm,Calm,-,N/A,,Scattered Clouds,0,2012-12-09 01:53:00
9:53 PM,66.0,62.1,87,29.83,10.0,SSE,5.8,-,N/A,,Mostly Cloudy,150,2012-12-09 03:53:00
10:53 PM,66.0,62.1,87,29.83,10.0,South,9.2,-,N/A,,Partly Cloudy,180,2012-12-09 04:53:00
11:53 PM,66.9,63.0,87,29.83,10.0,South,11.5,-,N/A,,Clear,190,2012-12-09 05:53:00